GW4111 Weather Reports


time (UTC)temp
C
wind
direction
speed
KPH
gust
KPH
rain 1hr
cm
rain 24hr
cm
rain mn
cm
humidity
%
barometer
mb
20260509201537 17 281 8.0 16.1 0.00 0.00 0.00 62 1003.4
20260509200043 18 237 6.4 22.5 0.00 0.00 0.00 62 1003.3
20260509194538 18 181 6.4 19.3 0.00 0.00 0.00 62 1003.2
20260509193037 18 197 8.0 17.7 0.00 0.00 0.00 60 1003.7
20260509191541 17 281 9.7 17.7 0.00 0.00 0.00 61 1004.0
20260509190042 17 214 6.4 25.7 0.00 0.00 0.00 63 1004.3
20260509184554 17 226 12.9 24.1 0.00 0.00 0.00 64 1004.5
20260509183039 17 214 11.3 24.1 0.00 0.00 0.00 63 1004.4
20260509181545 17 249 6.4 20.9 0.00 0.00 0.00 63 1004.5
20260509180038 17 191 6.4 19.3 0.00 0.00 0.00 63 1004.7
20260509174540 17 229 6.4 19.3 0.00 0.00 0.00 62 1004.9
20260509173038 17 193 6.4 17.7 0.00 0.00 0.00 61 1005.2
20260509171539 16 259 11.3 22.5 0.00 0.00 0.00 63 1005.3
20260509170038 16 283 8.0 24.1 0.00 0.00 0.00 64 1005.3
20260509164537 16 280 9.7 19.3 0.00 0.00 0.00 63 1005.4
20260509163044 17 235 8.0 20.9 0.00 0.00 0.00 61 1005.6
20260509161539 16 208 6.4 17.7 0.00 0.00 0.00 63 1005.8
20260509160039 16 201 3.2 12.9 0.00 0.00 0.00 63 1005.8
20260509154544 15 242 4.8 14.5 0.00 0.00 0.00 63 1006.0
20260509153040 15 114 4.8 17.7 0.00 0.00 0.00 63 1006.0
20260509151538 14 242 3.2 12.9 0.00 0.00 0.00 60 1006.2
20260509150037 14 214 3.2 12.9 0.00 0.00 0.00 60 1006.2
20260509144542 13 259 6.4 16.1 0.00 0.00 0.00 60 1006.2
20260509143047 13 193 1.6 16.1 0.00 0.00 0.00 58 1006.3
20260509141543 13 0 8.0 14.5 0.00 0.00 0.00 50 1006.4
20260509140048 13 276 4.8 16.1 0.00 0.00 0.00 50 1006.5
20260509134538 13 0 1.6 12.9 0.00 0.00 0.00 46 1006.6
20260509133038 13 0 6.4 17.7 0.00 0.00 0.00 47 1006.6
20260509131540 13 197 4.8 14.5 0.00 0.00 0.00 45 1006.6
20260509130042 12 113 0.0 8.0 0.00 0.00 0.00 37 1006.6
20260509124539 11 208 1.6 12.9 0.00 0.03 0.00 28 1006.9
20260509123048 11 203 0.0 6.4 0.00 0.03 0.00 23 1007.0
20260509121538 11 162 0.0 6.4 0.00 0.03 0.00 14 1007.1
20260509120037 10 0 0.0 6.4 0.00 0.03 0.00 1 1007.0
20260509114541 9 194 0.0 8.0 0.00 0.20 0.00 100 1007.0
20260509113045 8 0 0.0 3.2 0.00 0.20 0.00 100 1007.0
20260509111546 7 0 0.0 1.6 0.00 0.20 0.00 100 1007.0
20260509110038 7 0 0.0 1.6 0.00 0.20 0.00 100 1007.2
20260509104536 6 134 0.0 1.6 0.00 0.23 0.00 100 1007.2
20260509103049 5 0 0.0 1.6 0.00 0.23 0.00 100 1007.1
20260509101539 5 0 0.0 0.0 0.00 0.23 0.00 100 1007.0
20260509100053 5 0 0.0 0.0 0.00 0.23 0.00 100 1007.0
20260509094544 5 0 0.0 0.0 0.00 0.25 0.00 100 1007.1
20260509093039 5 0 0.0 0.0 0.00 0.25 0.00 14 1007.0
20260509091538 5 0 0.0 0.0 0.00 0.25 0.00 21 1007.0
20260509090036 5 0 0.0 0.0 0.00 0.25 0.00 29 1007.1
20260509084538 5 0 0.0 0.0 0.00 0.25 0.00 39 1007.2
20260509083043 6 0 0.0 0.0 0.00 0.25 0.00 45 1007.2
20260509081539 6 0 0.0 0.0 0.00 0.25 0.00 47 1007.2
20260509080045 5 0 0.0 1.6 0.00 0.25 0.00 52 1007.4
20260509074543 5 0 0.0 0.0 0.00 0.25 0.00 54 1007.4
20260509073046 5 0 0.0 0.0 0.00 0.25 0.00 52 1007.5
20260509071538 4 0 0.0 0.0 0.00 0.25 0.00 39 1007.8
20260509070040 3 0 0.0 1.6 0.00 0.25 0.00 35 1007.7
20260509064538 3 0 0.0 0.0 0.00 0.25 0.00 35 1007.9
20260509063040 3 0 0.0 0.0 0.00 0.25 0.00 47 1008.2
20260509061550 3 0 0.0 0.0 0.00 0.25 0.00 58 1008.3
20260509060042 3 0 0.0 0.0 0.00 0.25 0.00 60 1008.6
20260509054550 3 0 0.0 0.0 0.00 0.25 0.00 63 1008.8
20260509053053 4 0 0.0 0.0 0.00 0.25 0.00 64 1009.0
20260509051537 4 0 0.0 0.0 0.00 0.25 0.00 64 1009.0
20260509050038 4 0 0.0 0.0 0.00 0.25 0.00 64 1009.1
20260509044544 4 0 0.0 0.0 0.00 0.25 0.00 65 1009.2
20260509043034 4 0 0.0 0.0 0.00 0.25 0.00 66 1009.4
20260509041538 5 0 0.0 0.0 0.00 0.25 0.00 66 1009.5
20260509040039 5 0 0.0 0.0 0.00 0.25 0.00 66 1009.5
20260509034538 5 0 0.0 0.0 0.00 0.25 0.25 66 1009.8
20260509033038 5 0 0.0 0.0 0.00 0.25 0.25 66 1009.8
20260509031544 4 0 0.0 0.0 0.00 0.25 0.25 66 1010.0
20260509030040 5 0 0.0 0.0 0.00 0.25 0.25 66 1010.0
20260509024538 5 0 0.0 0.0 0.00 0.28 0.25 67 1010.1
20260509023039 5 0 0.0 0.0 0.00 0.28 0.25 66 1010.1
20260509021538 5 0 0.0 0.0 0.00 0.28 0.25 66 1010.0
20260509020039 6 0 0.0 0.0 0.00 0.28 0.25 63 1009.9
20260509014535 6 0 0.0 0.0 0.00 0.51 0.25 57 1009.9
20260509013039 7 0 0.0 0.0 0.00 0.51 0.25 50 1009.8
20260509011538 7 0 0.0 0.0 0.00 0.51 0.25 46 1009.7
20260509010038 8 0 0.0 0.0 0.00 0.51 0.25 42 1009.8
20260509004540 10 0 0.0 4.8 0.00 0.51 0.25 38 1009.7
20260509003042 10 0 0.0 8.0 0.00 0.51 0.25 37 1009.6
20260509001538 11 0 0.0 1.6 0.00 0.51 0.25 36 1009.5
20260509000038 11 208 0.0 4.8 0.00 0.51 0.25 34 1009.4
20260508234539 12 277 0.0 6.4 0.00 0.51 0.25 32 1009.4
20260508233037 12 0 0.0 9.7 0.00 0.51 0.25 32 1009.3
20260508231552 13 250 0.0 8.0 0.00 0.51 0.25 35 1009.4
20260508230051 13 245 1.6 12.9 0.00 0.51 0.25 35 1009.3
20260508224538 13 0 4.8 14.5 0.00 0.51 0.25 35 1009.4
20260508223043 13 0 0.0 9.7 0.00 0.51 0.25 36 1009.5
20260508221538 13 231 3.2 12.9 0.00 0.51 0.25 36 1009.4
20260508220043 13 0 0.0 14.5 0.00 0.51 0.25 36 1009.5
20260508214554 13 250 3.2 14.5 0.00 0.51 0.25 36 1009.4
20260508213047 14 270 0.0 8.0 0.00 0.51 0.25 35 1009.5
20260508211541 13 241 4.8 14.5 0.00 0.51 0.25 36 1009.5
20260508210041 13 282 6.4 20.9 0.00 0.51 0.25 36 1009.4
20260508204538 13 0 6.4 19.3 0.00 0.51 0.25 37 1009.5
20260508203037 14 264 3.2 12.9 0.00 0.51 0.25 38 1009.5